    Orbital elements:
    2013 SO19                                                Earth MOID = 0.1227 AU
    Epoch 2013 Nov. 4.0 TT = JDT 2456600.5                  MPC
    M  16.75713              (2000.0)            P               Q
    n   0.29834753     Peri.  345.18177     +0.96969751     +0.24429373
    a   2.2181339      Node     0.69555     -0.19530725     +0.78180553
    e   0.4944104      Incl.   12.87112     -0.14677132     +0.57367298
    P   3.30           H   21.9           G   0.15           U   7
    Residuals in seconds of arc
    130924 703  0.2-  0.2-    130924 E23  0.4+  0.1-    130924 160  0.1+  0.1+
    130924 703  1.1+  0.4-    130924 F51  0.2-  0.2+    130924 160  0.0   0.1+
    130924 703  0.4+  0.1+    130924 E23  0.0   0.3+    130924 160  0.0   0.2+
    130924 703  0.3-  0.8+    130924 F51  0.1-  0.1+    130924 203  0.0   0.4+
    130924 703  0.3+  0.5+    130924 F51  0.0   0.0     130924 203  0.1+  0.2+
    130924 703  0.0   0.6+    130924 300  0.1-  1.3-    130925 807  0.0   0.1-
    130924 703  0.2+  0.1+    130924 300 (0.2-  1.5-)   130925 807  0.3+  0.4-
    130924 G96  0.0   0.1-    130924 300  0.2+  1.5-    130925 807  0.3+  0.1-
    130924 703  0.5+  0.4-    130924 300  0.5+  0.6-    130925 807  0.2-  0.3-
    130924 G96  0.0   0.1-    130924 300  0.5+  1.3-    130925 807  0.0   0.1-
    130924 G96  0.0   0.0     130924 900  0.2+  0.4+    130925 G48  0.0   0.0
    130924 G96  0.1-  0.0     130924 900  0.3+  0.1+    130925 G48  0.1-  0.0
    130924 H01  0.2-  0.2-    130924 900  0.2-  0.3+    130925 G48  0.4-  0.1+
    130924 H01  0.1+  0.2-    130924 151  0.0   0.4-    130925 G48  0.2-  0.0
    130924 H21  0.1+  0.1-    130924 151  0.0   0.1-    130925 G48  0.1-  0.2+
    130924 H21  0.0   0.2-    130924 151  0.3-  0.3+    130925 H36  0.2+  0.2+
    130924 H01  0.0   0.2-    130924 151  0.2-  0.1+    130925 H36  0.2-  0.2+
    130924 H21  0.0   0.1-    130924 151  0.4-  0.3+    130925 H36  0.2-  0.1-
    130924 H01  0.0   0.1-    130924 151  0.2-  0.2+    130925 448  0.1-  0.1-
    130924 703  0.1-  0.0     130924 151  0.0   0.0     130925 448  0.2+  0.1+
    130924 703  0.1-  0.0     130924 G38  0.0   0.3-    130925 448  0.3+  0.4-
    130924 703  0.2-  0.6+    130924 G38  0.1-  0.4+    130925 448  0.3+  0.0
    130924 703  1.1-  0.7+    130924 G38  0.1-  0.3+    130925 448  0.3+  0.0
    130924 E23  0.0   0.1-    130924 160  0.0   0.1+
    
    Ephemeris:
    2013 SO19                a,e,i = 2.22, 0.49, 13                  q = 1.1215
    Date    TT    R. A. (2000) Decl.     Delta      r     Elong.  Phase     V
    2013 08 26    23 52 21.1 -53 00 41   0.1675  1.1324   133.5    40.3    19.9
    ...
    2013 09 10    00 05 36.8 -29 39 18   0.1274  1.1215   152.4    24.6    18.8
    ...
    2013 09 18    00 07 54.5 -11 29 03   0.1237  1.1263   168.5    10.3    18.3
    ...
    2013 09 24    00 08 39.4 +01 52 20   0.1316  1.1347   178.0     1.8    18.0
    2013 09 25    00 08 44.4 +03 54 34   0.1337  1.1365   176.8     2.8    18.1
    2013 09 26    00 08 49.0 +05 52 34   0.1361  1.1384   175.2     4.2    18.2
    ...
    2013 10 02    00 09 17.6 +16 02 58   0.1549  1.1520   166.2    11.9    18.9
    ...
    2013 10 10    00 10 37.6 +25 25 17   0.1892  1.1757   157.6    18.9    19.6
    ...
    2013 10 25    00 17 46.4 +34 04 38   0.2733  1.2354   148.3    25.0    20.7
    
    A. U. Tomatic                (C) Copyright 2013 MPC           M.P.E.C. 2013-S36
    

    Read MPEC 2013-S35 Read MPEC 2013-S37


    MPEC number:

    Enter an MPEC number in one of the following forms:

    • 1997-B01 (the full form)
    • J97B01 (the packed version of the full form)
    • B01 (the abbreviated form)